Weather History for Longview, TX

Change the Weather History Date:

Tuesday, April 8, 2014

  Actual Average Record
Temperature  
Mean Temperature 57 °F 63 °F  
Max Temperature 69 °F 74 °F 92 °F (1948)
Min Temperature 45 °F 51 °F 33 °F (1996)
Degree Days  
Heating Degree Days 8 4  
Month to date heating degree days 52 37  
Since 1 July heating degree days 2524 2196  
Cooling Degree Days 0 2  
Month to date cooling degree days 25 16  
Year to date cooling degree days 40 55  
Growing Degree Days 8 (Base 50)    
Moisture  
Dew Point 41 °F    
Average Humidity 58    
Maximum Humidity 89    
Minimum Humidity 26    
Precipitation  
Precipitation 0.01 in 0.11 in 4.06 in (1942)
Month to date precipitation 2.11 0.93  
Year to date precipitation 8.84 12.64  
Snow  
Snow 0.00 in - - ()
Month to date snowfall 0.0  
Since 1 July snowfall 0.3  
Snow Depth 0.00 in    
Sea Level Pressure  
Sea Level Pressure 30.01 in    
Wind  
Wind Speed 11 mph (WNW)    
Max Wind Speed 33 mph    
Max Gust Speed 39 mph    
Visibility 10 miles    
Events Rain    
T = Trace of Precipitation, MM = Missing Value Source: NWS Daily Summary

Daily Weather History Graph

Daily Weather History Graph

Search for Another Location

Airport:

Trip Planner

Search our weather history database for the weather conditions in past years. The results will help you decide how hot, cold, wet, or windy it might be!

Date:

Astronomy

Apr. 08, 2014 Rise Set
Actual Time 6:58 AM CDT 7:43 PM CDT
Civil Twilight 6:33 AM CDT 8:08 PM CDT
Nautical Twilight 6:03 AM CDT 8:38 PM CDT
Astronomical Twilight 5:33 AM CDT 9:08 PM CDT
Moon 1:57 PM CDT (4/8) 2:51 AM CDT (4/8)
Length of Visible Light 13h 35m
Length of Day
12h 45m
Waxing Gibbous, 63% of the Moon is Illuminated
Apr 8
Waxing Gibbous
Apr 15
Full
Apr 22
Last Quarter
Apr 29
New
May 6
First Quarter

Hourly Weather History & Observations

Time (CDT) Temp. Dew Point Humidity Pressure Visibility Wind Dir Wind Speed Gust Speed Precip Events Conditions
12:53 AM 52.0 °F 46.9 °F 83% 29.96 in 10.0 mi SSW 5.8 mph - N/A   Mostly Cloudy
1:53 AM 53.1 °F 48.0 °F 83% 29.94 in 10.0 mi Calm Calm - 0.01 in Rain Light Rain
2:53 AM 52.0 °F 48.0 °F 86% 29.92 in 10.0 mi WSW 4.6 mph - 0.00 in   Mostly Cloudy
3:53 AM 52.0 °F 48.0 °F 86% 29.92 in 10.0 mi West 8.1 mph - N/A   Clear
4:53 AM 51.1 °F 46.9 °F 86% 29.93 in 10.0 mi West 6.9 mph - N/A   Scattered Clouds
5:53 AM 51.1 °F 46.0 °F 83% 29.94 in 10.0 mi WNW 9.2 mph - N/A   Scattered Clouds
6:53 AM 51.1 °F 45.0 °F 80% 29.96 in 10.0 mi West 9.2 mph - N/A   Scattered Clouds
7:53 AM 50.0 °F 46.4 °F 87% 29.98 in 10.0 mi WNW 9.2 mph - N/A   Partly Cloudy
8:53 AM 54.0 °F 44.1 °F 69% 29.99 in 10.0 mi WNW 15.0 mph - N/A   Clear
9:53 AM 57.0 °F 45.0 °F 64% 30.00 in 10.0 mi NW 15.0 mph - N/A   Clear
10:53 AM 60.1 °F 45.0 °F 57% 30.02 in 10.0 mi WNW 16.1 mph - N/A   Clear
11:53 AM 64.0 °F 44.1 °F 48% 30.02 in 10.0 mi NW 18.4 mph 25.3 mph N/A   Clear
12:53 PM 66.0 °F 43.0 °F 43% 30.02 in 10.0 mi NW 18.4 mph 35.7 mph N/A   Clear
1:53 PM 66.9 °F 41.0 °F 39% 30.01 in 10.0 mi NW 23.0 mph 31.1 mph N/A   Scattered Clouds
2:53 PM 66.9 °F 37.9 °F 34% 29.99 in 10.0 mi NW 24.2 mph 36.8 mph N/A   Partly Cloudy
3:53 PM 66.9 °F 37.9 °F 34% 29.99 in 10.0 mi NNW 24.2 mph 32.2 mph N/A   Scattered Clouds
4:53 PM 68.0 °F 34.0 °F 28% 30.00 in 10.0 mi NNW 18.4 mph 36.8 mph N/A   Scattered Clouds
5:53 PM 66.9 °F 30.9 °F 26% 30.02 in 10.0 mi NW 20.7 mph 39.1 mph N/A   Mostly Cloudy
6:53 PM 64.9 °F 30.0 °F 27% 30.04 in 10.0 mi NNW 16.1 mph 29.9 mph N/A   Partly Cloudy
7:53 PM 61.0 °F 30.9 °F 32% 30.08 in 10.0 mi NNW 8.1 mph - N/A   Clear
8:53 PM 55.0 °F 34.0 °F 45% 30.11 in 10.0 mi NW 3.5 mph - N/A   Clear
9:53 PM 52.0 °F 36.0 °F 54% 30.14 in 10.0 mi Calm Calm - N/A   Clear
10:53 PM 48.9 °F 37.0 °F 64% 30.14 in 10.0 mi Calm Calm - N/A   Clear
11:53 PM 46.9 °F 39.0 °F 74% 30.16 in 10.0 mi Calm Calm - N/A   Clear